Weaverville, CA

9:28 AM PDT on September 25, 2016 (GMT -0700)
Weaverville

Weather History for KO54 - April, 2013

Change the Weather History Date:

Wednesday, April 3, 2013

  Actual Average (KRDD) Record (KRDD)
Temperature  
Mean Temperature 54 °F -  
Max Temperature 68 °F 67 °F 88 °F (1990)
Min Temperature 39 °F 44 °F 34 °F (2010)
Degree Days  
Heating Degree Days 12    
Cooling Degree Days 0    
Growing Degree Days 4 (Base 50)    
Moisture  
Dew Point 44 °F    
Average Humidity 74    
Maximum Humidity 100    
Minimum Humidity 40    
Precipitation  
Precipitation 0.00 in 0.10 in 0.48 in (2006)
Month to date precipitation 0.28  
Year to date precipitation 16.12  
Sea Level Pressure  
Sea Level Pressure 30.10 in    
Wind  
Wind Speed 1 mph (ENE)    
Max Wind Speed 6 mph    
Max Gust Speed -    
Visibility 9 miles    
Events      
T = Trace of Precipitation, MM = Missing Value Source: NWS Daily Summary

Daily Weather History Graph

Daily Weather History Graph

Search for Another Location

Airport or City:

Trip Planner

Search our weather history database for the weather conditions in past years. The results will help you decide how hot, cold, wet, or windy it might be!

Date:

Astronomy

Apr. 03, 2013 Rise Set
Actual Time 6:51 AM PDT 7:38 PM PDT
Civil Twilight 6:23 AM PDT 8:06 PM PDT
Nautical Twilight 5:50 AM PDT 8:39 PM PDT
Astronomical Twilight 5:16 AM PDT 9:13 PM PDT
Moon 2:38 AM PDT (4/3) 12:55 PM PDT (4/3)
Length of Visible Light 13h 43m
Length of Day
12h 47m
Last Quarter, 43% of the Moon is Illuminated
Apr 3
Last Quarter
Apr 10
New
Apr 18
First Quarter
Apr 25
Full
May 2
Last Quarter

Hourly Weather History & Observations

Time (PDT) Temp. Windchill Dew Point Humidity Pressure Visibility Wind Dir Wind Speed Gust Speed Precip Events Conditions
12:15 AM 44.6 °F - 41.0 °F 87% 30.16 in 10.0 mi Calm Calm - N/A   Clear
12:35 AM 44.6 °F - 41.0 °F 87% 30.16 in 10.0 mi Calm Calm - N/A   Clear
12:55 AM 44.6 °F - 41.0 °F 87% 30.16 in 10.0 mi Calm Calm - N/A   Clear
1:15 AM 42.8 °F - 41.0 °F 93% 30.16 in 10.0 mi Calm Calm - N/A   Clear
1:35 AM 42.8 °F - 41.0 °F 93% 30.17 in 10.0 mi Calm Calm - N/A   Clear
1:55 AM 41.0 °F - 41.0 °F 100% 30.17 in 10.0 mi Calm Calm - N/A   Clear
2:15 AM 41.0 °F - 39.2 °F 93% 30.17 in 10.0 mi Calm Calm - N/A   Clear
2:35 AM 41.0 °F - 39.2 °F 93% 30.16 in 10.0 mi Calm Calm - N/A   Clear
2:55 AM 41.0 °F - 39.2 °F 93% 30.16 in 10.0 mi Calm Calm - N/A   Clear
3:15 AM 41.0 °F - 39.2 °F 93% 30.16 in 10.0 mi Calm Calm - N/A   Clear
3:35 AM 41.0 °F - 39.2 °F 93% 30.16 in 10.0 mi Calm Calm - N/A   Clear
3:55 AM 41.0 °F - 39.2 °F 93% 30.16 in 10.0 mi Calm Calm - N/A   Clear
4:15 AM 39.2 °F - 39.2 °F 100% 30.16 in 10.0 mi Calm Calm - N/A   Clear
4:35 AM 39.2 °F - 39.2 °F 100% 30.16 in 10.0 mi Calm Calm - N/A   Clear
4:55 AM 39.2 °F - 37.4 °F 93% 30.16 in 10.0 mi Calm Calm - N/A   Clear
5:15 AM 39.2 °F - 39.2 °F 100% 30.15 in 10.0 mi Calm Calm - N/A   Clear
5:35 AM 39.2 °F - 37.4 °F 93% 30.15 in 10.0 mi Calm Calm - N/A   Partly Cloudy
5:55 AM 39.2 °F - 39.2 °F 100% 30.16 in 10.0 mi Calm Calm - N/A   Mostly Cloudy
6:15 AM 41.0 °F - 39.2 °F 93% 30.16 in 5.0 mi Calm Calm - N/A   Overcast
6:35 AM 41.0 °F - 41.0 °F 100% 30.16 in 1.5 mi Calm Calm - N/A   Overcast
6:55 AM 41.0 °F - 41.0 °F 100% 30.16 in 1.8 mi Calm Calm - N/A   Overcast
7:15 AM 42.8 °F - 41.0 °F 93% 30.16 in 1.5 mi Calm Calm - N/A   Overcast
7:35 AM 42.8 °F - 41.0 °F 93% 30.16 in 0.2 mi Calm Calm - N/A   Overcast
7:55 AM 44.6 °F - 42.8 °F 93% 30.16 in 0.2 mi Calm Calm - N/A   Overcast
8:15 AM 44.6 °F - 42.8 °F 93% 30.17 in 0.8 mi Calm Calm - N/A   Overcast
8:35 AM 44.6 °F 43.1 °F 42.8 °F 93% 30.18 in 10.0 mi NE 3.5 mph - N/A   Overcast
8:55 AM 44.6 °F - 42.8 °F 93% 30.18 in 10.0 mi Calm Calm - N/A   Overcast
9:15 AM 46.4 °F - 42.8 °F 87% 30.18 in 10.0 mi Calm Calm - N/A   Overcast
9:35 AM 46.4 °F - 42.8 °F 87% 30.18 in 10.0 mi Calm Calm - N/A   Overcast
9:55 AM 46.4 °F - 42.8 °F 87% 30.18 in 10.0 mi Calm Calm - N/A   Overcast
10:15 AM 48.2 °F - 44.6 °F 87% 30.18 in 10.0 mi Calm Calm - N/A   Overcast
10:35 AM 50.0 °F - 44.6 °F 82% 30.17 in 10.0 mi Calm Calm - N/A   Scattered Clouds
10:55 AM 51.8 °F - 46.4 °F 82% 30.16 in 10.0 mi Calm Calm - N/A   Clear
11:15 AM 53.6 °F - 46.4 °F 77% 30.16 in 10.0 mi South 4.6 mph - N/A   Clear
11:35 AM 55.4 °F - 46.4 °F 72% 30.15 in 10.0 mi SSW 3.5 mph - N/A   Clear
11:55 AM 57.2 °F - 46.4 °F 67% 30.14 in 10.0 mi Calm Calm - N/A   Clear
12:15 PM 59.0 °F - 48.2 °F 67% 30.13 in 10.0 mi SW 3.5 mph - N/A   Clear
12:35 PM 62.6 °F - 48.2 °F 59% 30.12 in 10.0 mi West 3.5 mph - N/A   Clear
12:55 PM 64.4 °F - 48.2 °F 56% 30.11 in 10.0 mi Calm Calm - N/A   Clear
1:15 PM 64.4 °F - 48.2 °F 56% 30.10 in 10.0 mi Calm Calm - N/A   Clear
1:35 PM 68.0 °F - 46.4 °F 46% 30.09 in 10.0 mi South 4.6 mph - N/A   Partly Cloudy
1:55 PM 66.2 °F - 44.6 °F 46% 30.08 in 10.0 mi Calm Calm - N/A   Scattered Clouds
2:15 PM 66.2 °F - 46.4 °F 49% 30.08 in 10.0 mi SW 4.6 mph - N/A   Partly Cloudy
2:35 PM 68.0 °F - 44.6 °F 43% 30.07 in 10.0 mi East 4.6 mph - N/A   Clear
2:55 PM 68.0 °F - 44.6 °F 43% 30.06 in 10.0 mi ENE 3.5 mph - N/A   Clear
3:15 PM 68.0 °F - 44.6 °F 43% 30.05 in 10.0 mi Calm Calm - N/A   Clear
3:35 PM 68.0 °F - 44.6 °F 43% 30.04 in 10.0 mi Calm Calm - N/A   Clear
3:55 PM 68.0 °F - 42.8 °F 40% 30.04 in 10.0 mi NE 5.8 mph - N/A   Clear
4:15 PM 68.0 °F - 46.4 °F 46% 30.03 in 10.0 mi Calm Calm - N/A   Clear
4:35 PM 68.0 °F - 46.4 °F 46% 30.03 in 10.0 mi ENE 3.5 mph - N/A   Clear
4:55 PM 68.0 °F - 46.4 °F 46% 30.02 in 10.0 mi NE 4.6 mph - N/A   Clear
5:15 PM 68.0 °F - 46.4 °F 46% 30.02 in 10.0 mi Calm Calm - N/A   Clear
5:35 PM 66.2 °F - 48.2 °F 52% 30.01 in 10.0 mi Calm Calm - N/A   Clear
5:55 PM 66.2 °F - 46.4 °F 49% 30.01 in 10.0 mi Calm Calm - N/A   Clear
6:15 PM 64.4 °F - 46.4 °F 52% 30.01 in 10.0 mi Calm Calm - N/A   Clear
6:35 PM 64.4 °F - 46.4 °F 52% 30.01 in 10.0 mi Calm Calm - N/A   Scattered Clouds
6:55 PM 62.6 °F - 46.4 °F 55% 30.01 in 10.0 mi Calm Calm - N/A   Mostly Cloudy
7:15 PM 62.6 °F - 48.2 °F 59% 30.00 in 10.0 mi Calm Calm - N/A   Clear
7:35 PM 60.8 °F - 48.2 °F 63% 30.00 in 10.0 mi Calm Calm - N/A   Clear
7:55 PM 59.0 °F - 46.4 °F 63% 29.99 in 10.0 mi Calm Calm - N/A   Scattered Clouds
8:15 PM 59.0 °F - 46.4 °F 63% 30.00 in 10.0 mi Calm Calm - N/A   Scattered Clouds
8:35 PM 57.2 °F - 46.4 °F 67% 29.99 in 10.0 mi Calm Calm - N/A   Clear
8:55 PM 57.2 °F - 46.4 °F 67% 30.00 in 10.0 mi Calm Calm - N/A   Clear
9:15 PM 57.2 °F - 46.4 °F 67% 30.00 in 10.0 mi Calm Calm - N/A   Scattered Clouds
9:35 PM 57.2 °F - 46.4 °F 67% 30.00 in 10.0 mi Calm Calm - N/A   Mostly Cloudy
9:55 PM 57.2 °F - 46.4 °F 67% 30.00 in 10.0 mi Calm Calm - N/A   Scattered Clouds
10:15 PM 55.4 °F - 46.4 °F 72% 29.99 in 10.0 mi Calm Calm - N/A   Scattered Clouds
10:35 PM 55.4 °F - 48.2 °F 77% 29.99 in 10.0 mi Calm Calm - N/A   Overcast
10:55 PM 55.4 °F - 48.2 °F 77% 29.99 in 10.0 mi Calm Calm - N/A   Overcast
11:15 PM 55.4 °F - 48.2 °F 77% 29.99 in 10.0 mi NNE 3.5 mph - N/A   Overcast
11:35 PM 55.4 °F - 46.4 °F 72% 29.99 in 10.0 mi NNE 4.6 mph - N/A   Overcast
11:55 PM 55.4 °F - 48.2 °F 77% 29.99 in 10.0 mi NNE 5.8 mph - N/A   Overcast